Location: Cluj-Napoca
(46.7712°N, 23.6236°E)
Time: 11:22:40
(UTC+02:00)

ISS - Visible Passes

Search period start: 21 February 2018 00:00
Search period end: 03 March 2018 00:00
Orbit: 402 x 407 km, 51.6° (Epoch: 21 February)

Date Brightness Start Highest point End Pass type
(mag) Time Alt. Az. Time Alt. Az. Time Alt. Az.
25 Feb -0.9 06:42:23 10° S 06:44:33 16° SE 06:46:42 10° E visible
27 Feb -2.1 06:33:11 10° SSW 06:36:10 33° SE 06:39:10 10° ENE visible
28 Feb -1.4 05:41:34 10° S 05:44:02 20° SE 05:46:30 10° E visible
01 Mar -0.9 04:51:07 11° SSE 04:51:56 12° SE 04:53:07 10° ESE visible
01 Mar -3.5 06:24:38 10° SW 06:27:52 68° SSE 06:31:08 10° ENE visible
02 Mar -2.7 05:33:54 21° SSW 05:35:37 40° SE 05:38:42 10° ENE visible
